Location: ??????
(42.0089°N, 44.3281°E)
Time: 16:57:10
(UTC+00:00)

USA 267 - Pass Details

Date: 29 May 2022
Orbit: 1101 x 1106 km, 123.0° (Epoch: 28 June)

Event Time Altitude Azimuth Distance (km) Brightness Sun altitude
Exits shadow 23:48:02 20° 238° (WSW) 2,305 4.4 -15.4°
Drops below altitude 10° 23:52:34 10° 283° (WNW) 2,959 5.2 -14.8°
Sets 23:55:52 0° 300° (WNW) 3,922 6.0 -14.4°
